Home   Weather   Villavicencio   Past weeks

Flag for Colombia Past Weather in Villavicencio, Colombia — Yesterday and Last 2 Weeks

Now
63 °F

Broken clouds.


Feels Like: 63 °F
Forecast: 69 / 87 °F
Wind: 9 mph from Southeast

Location: Bogota / Eldorado

Current Time: Sep 25, 2016 at 12:39:13 PM

Latest Report: Sep 25, 2016 at 12:00 PM


Visibility: N/A

Pressure: 30.35 "Hg

Humidity: 56%

Dew Point: 46 °F

Location of VillavicencioLocation

Past Weather in Villavicencio — Graph

°F

Villavicencio Temperature Yesterday

Maximum temperature yesterday: 66 °F (at 4:00 PM)
Minimum temperature yesterday: 50 °F (at 5:00 AM)
Average temperature yesterday: 58 °F

High & Low Weather Summary for the Past Weeks

 TemperatureHumidityPressure
High70 °F (Sep 16, 1:00 PM)100% (Sep 16, 1:00 AM)30.47 "Hg (Sep 16, 1:00 AM)
Low41 °F (Sep 16, 2:00 AM)31% (Sep 16, 1:00 PM)30.10 "Hg (Sep 19, 4:00 AM)
Average57 °F73%30.35 "Hg
* Reported Sep 10 11:00 AM — Sep 25 11:00 AM, Villavicencio, Weather by CustomWeather, © 2016

Note: Actual official high and low records may vary slightly from our data, if they occured in-between our weather recording intervals... More about our weather records

Advertising

Villavicencio Weather History for the Previous 24 Hours

Scroll right to see more
 ConditionsComfort  
Time TempWeatherWind HumidityBarometerVisibility
11:00 AM
Sun, Sep 25
63 °FBroken clouds.8 mph59%30.39 "HgN/A
10:00 AM61 °FScattered clouds.7 mph63%30.41 "HgN/A
9:00 AM59 °FPartly sunny.10 mph63%30.42 "HgN/A
8:00 AM57 °FBroken clouds.7 mph67%30.40 "HgN/A
7:00 AM52 °FBroken clouds.5 mph88%30.38 "HgN/A
6:00 AM50 °FBroken clouds.6 mph94%30.37 "HgN/A
5:00 AM50 °FScattered showers. Partly cloudy.7 mph94%30.36 "HgN/A
4:00 AM50 °FScattered showers. Partly cloudy.3 mph94%30.36 "HgN/A
3:00 AM52 °FPartly cloudy.3 mph88%30.36 "Hg6 mi
2:00 AM52 °FPassing clouds.2 mph94%30.36 "Hg5 mi
1:00 AM52 °FScattered showers. Passing clouds.7 mph94%30.37 "HgN/A
12:00 AM54 °FPassing clouds.3 mph77%30.38 "Hg5 mi
11:00 PM
Sat, Sep 24
54 °FPassing clouds.5 mph88%30.41 "Hg5 mi
10:00 PM54 °FPassing clouds.2 mph88%30.42 "Hg5 mi
9:00 PM54 °FPassing clouds.5 mph88%30.39 "HgN/A
8:00 PM59 °FScattered showers. Passing clouds.7 mph63%30.37 "HgN/A
7:00 PM61 °FPassing clouds.7 mph59%30.33 "HgN/A
6:00 PM63 °FPassing clouds.9 mph52%30.30 "HgN/A
5:00 PM64 °FScattered clouds.6 mph46%30.29 "HgN/A
4:00 PM66 °FScattered clouds.7 mph43%30.29 "HgN/A
3:00 PM64 °FScattered clouds.14 mph52%30.30 "HgN/A
2:00 PM61 °FScattered clouds.8 mph59%30.32 "HgN/A
1:00 PM63 °FScattered showers. Partly sunny.8 mph52%30.35 "HgN/A
12:00 PM63 °FScattered showers. Partly sunny.14 mph56%30.38 "HgN/A
Weather by CustomWeather, © 2016

See weather overviewHow to use our weather pages